(219794) = 2002 AD104

Discovered at Socorro on 2002-01-09 by LINEAR.

Orbit

Orbit type: Main Belt

Note: WebGL enabled browser required.

epoch2024-03-31.0
epoch JD2460400.5
perihelion date2023-02-11.71052
perihelion JD2459987.21052
argument of perihelion (°)279.33409
ascending node (°)111.49368
inclination (°)7.93116
eccentricity0.1491488
perihelion distance (AU)2.2772413
Tisserand w.r.t. Jupiter3.3
ΔV w.r.t. Earth (km/sec)9.8
semimajor axis (AU)2.6764271
mean anomaly (°)93.03043
mean daily motion (°/day)0.22509750
aphelion distance (AU)3.076
period (years)4.38
P-vector [x]0.84992927
P-vector [y]0.52115886
P-vector [z]0.07754793
Q-vector [x]-0.51101552
Q-vector [y]0.77947197
Q-vector [z]0.36233490
absolute magnitude16.14
phase slope0.15
uncertainty0
referenceMPEC 2024-C128
observations used892
oppositions15
arc length (days)8569
first opposition used2000
last opposition used2024
residual rms (arc-secs)0.66
perturbers coarse indicatorM-v
perturbers precise indicator003Ek
first observation date used2000-08-26.0
last observation date used2024-02-11.0
computer nameMPCLINUX
JD of orbit computation2456494.383257
perihelion JD uncertainty (days)1.7548E-04
argument of perihelion uncertainty (°)6.8911E-05
ascending node uncertainty (°)6.0619E-05
inclination uncertainty (°)8.3175E-06
eccentricity uncertainty 9.7036E-08
perihelion distance uncertainty (AU)2.8226E-07
Minimum Orbit Intersection Distances (in AU)
for orbit epoch: 2460400.5, reference: E2024-GB3
Mercury1.9453
Venus1.5576
Earth1.29943
Mars0.84441
Jupiter2.38764
Saturn6.44886
Uranus15.4819
Neptune27.5538

Observations

907 total observations over interval: 2000 08 26.27526 – 2024 02 11.518816
These data are available for download (format description).

Date (UT) J2000 RA J2000 Dec Magn Location Ref
2000 08 26.27526 22 18 47.59 -19 42 23.7 18.8   704 – Lincoln Laboratory ETS, New Mexico MPS 150669
2000 08 26.28871 22 18 46.87 -19 42 30.4 18.8   704 – Lincoln Laboratory ETS, New Mexico MPS 150669
2000 08 26.31563 22 18 45.41 -19 42 42.5 19.5   704 – Lincoln Laboratory ETS, New Mexico MPS 150669
2000 08 26.32911 22 18 44.81 -19 42 47.4 18.8   704 – Lincoln Laboratory ETS, New Mexico MPS 150669
2001 12 17.44756 08 18 35.38 +19 02 33.0 19.1   704 – Lincoln Laboratory ETS, New Mexico MPS 49930
2001 12 17.45481 08 18 35.17 +19 02 35.3 20.1   644 – Palomar Mountain/NEAT MPS 49930
2001 12 17.46284 08 18 34.90 +19 02 37.4 19.5   704 – Lincoln Laboratory ETS, New Mexico MPS 49930
2001 12 17.46522 08 18 34.87 +19 02 38.4 19.9   644 – Palomar Mountain/NEAT MPS 49930
2001 12 17.47569 08 18 34.53 +19 02 41.3 20.0   644 – Palomar Mountain/NEAT MPS 49930
2001 12 17.47812 08 18 34.42 +19 02 42.1 19.2   704 – Lincoln Laboratory ETS, New Mexico MPS 49930
2001 12 17.49339 08 18 33.96 +19 02 46.0 19.5   704 – Lincoln Laboratory ETS, New Mexico MPS 49930
2001 12 17.50867 08 18 33.51 +19 02 50.9 19.9   704 – Lincoln Laboratory ETS, New Mexico MPS 49930
2002 01 09.33167 08 01 12.72 +21 10 17.0 19.2   704 – Lincoln Laboratory ETS, New Mexico MPS 47445
2002 01 09.34682 08 01 11.78 +21 10 23.4 19.8   704 – Lincoln Laboratory ETS, New Mexico MPS 47445
2002 01 09.36198 08 01 10.91 +21 10 28.4 19.2   704 – Lincoln Laboratory ETS, New Mexico MPS 47445
2002 01 09.37717 08 01 09.98 +21 10 32.9 19.4   704 – Lincoln Laboratory ETS, New Mexico MPS 47445
2002 01 09.39245 08 01 09.13 +21 10 39.3 19.2   704 – Lincoln Laboratory ETS, New Mexico MPS 47445
2002 01 14.30664 07 56 21.62 +21 40 20.9 19.1   704 – Lincoln Laboratory ETS, New Mexico MPS 47445
2002 01 14.32173 07 56 20.74 +21 40 26.2 19.4   704 – Lincoln Laboratory ETS, New Mexico MPS 47445
2002 01 14.33683 07 56 19.77 +21 40 31.5 19.1   704 – Lincoln Laboratory ETS, New Mexico MPS 47445
2002 01 14.35227 07 56 18.87 +21 40 37.2 19.4   704 – Lincoln Laboratory ETS, New Mexico MPS 47445
2002 01 14.36928 07 56 17.82 +21 40 43.6 19.5   704 – Lincoln Laboratory ETS, New Mexico MPS 47445
2002 01 16.45292 07 54 14.09 +21 53 07.2 20.1   608 – Haleakala-AMOS MPS 49930
2002 01 16.46342 07 54 13.46 +21 53 10.1 20.6   608 – Haleakala-AMOS MPS 49930
2002 01 16.47449 07 54 12.76 +21 53 13.7 20.1   608 – Haleakala-AMOS MPS 49930
2002 01 18.25535 07 52 27.31 +22 03 39.7 18.9   704 – Lincoln Laboratory ETS, New Mexico MPS 49930
2002 01 18.27047 07 52 26.40 +22 03 44.8 19.2   704 – Lincoln Laboratory ETS, New Mexico MPS 49930
2002 01 18.29275 07 52 25.07 +22 03 52.7 19.3   704 – Lincoln Laboratory ETS, New Mexico MPS 49930
2002 01 20.26444 07 50 28.63 +22 15 14.8 19.1 R 699 – Lowell Observatory-LONEOS MPS 49930
2002 01 20.29188 07 50 26.98 +22 15 23.6   699 – Lowell Observatory-LONEOS MPS 49930
2002 01 20.31939 07 50 25.23 +22 15 33.3   699 – Lowell Observatory-LONEOS MPS 49930
2002 01 20.34703 07 50 23.61 +22 15 42.5   699 – Lowell Observatory-LONEOS MPS 49930
2002 02 06.25854 07 35 34.13 +23 40 08.3 19.5   704 – Lincoln Laboratory ETS, New Mexico MPS 49930
2002 02 06.27350 07 35 33.42 +23 40 12.5 20.1   704 – Lincoln Laboratory ETS, New Mexico MPS 49930
2002 02 06.28880 07 35 32.74 +23 40 16.1 20.2   704 – Lincoln Laboratory ETS, New Mexico MPS 49930
2002 02 06.30368 07 35 32.02 +23 40 20.6 19.9   704 – Lincoln Laboratory ETS, New Mexico MPS 49930
2002 02 07.23585 07 34 52.37 +23 44 09.8 19.6   704 – Lincoln Laboratory ETS, New Mexico MPS 55282
2002 02 07.25034 07 34 51.72 +23 44 12.5 20.2   704 – Lincoln Laboratory ETS, New Mexico MPS 55282
2002 02 07.26459 07 34 51.08 +23 44 16.7 19.7   704 – Lincoln Laboratory ETS, New Mexico MPS 55282
2002 02 07.27880 07 34 50.46 +23 44 20.0 19.3   704 – Lincoln Laboratory ETS, New Mexico MPS 55282
2002 02 07.29552 07 34 49.66 +23 44 24.2 19.9   704 – Lincoln Laboratory ETS, New Mexico MPS 55282
2005 10 30.39213 04 50 06.78 +12 02 56.5 19.9 R 644 – Palomar Mountain/NEAT MPS 149408
2005 10 30.41403 04 50 06.13 +12 02 54.9 19.2 R 644 – Palomar Mountain/NEAT MPS 149408
2005 10 30.43615 04 50 05.50 +12 02 53.3 19.2 R 644 – Palomar Mountain/NEAT MPS 149408
2005 11 05.32578 04 46 54.64 +11 55 55.7 19.1   704 – Lincoln Laboratory ETS, New Mexico MPS 149408
2005 11 05.33808 04 46 54.12 +11 55 55.4 19.4   704 – Lincoln Laboratory ETS, New Mexico MPS 149408
2005 11 05.35039 04 46 53.65 +11 55 55.1 19.3   704 – Lincoln Laboratory ETS, New Mexico MPS 149408
2005 11 05.36295 04 46 53.16 +11 55 53.6 19.5   704 – Lincoln Laboratory ETS, New Mexico MPS 149408
2005 11 05.37504 04 46 52.61 +11 55 53.8 19.5   704 – Lincoln Laboratory ETS, New Mexico MPS 149408
2005 11 10.40366 04 43 23.91 +11 51 24.5 18.6 V 703 – Catalina Sky Survey MPS 150669
2005 11 10.41081 04 43 23.59 +11 51 24.0 18.6 V 703 – Catalina Sky Survey MPS 150669
2005 11 10.41794 04 43 23.23 +11 51 23.6 18.2 V 703 – Catalina Sky Survey MPS 150669
2005 11 10.42506 04 43 22.83 +11 51 24.2 18.4 V 703 – Catalina Sky Survey MPS 150669
2005 11 20.41608 04 34 52.29 +11 47 47.3 18.7 R 644 – Palomar Mountain/NEAT MPS 150669
2005 11 20.43962 04 34 50.93 +11 47 47.4 18.5 R 644 – Palomar Mountain/NEAT MPS 150669
2005 11 20.46441 04 34 49.51 +11 47 47.5 18.6 R 644 – Palomar Mountain/NEAT MPS 150669
2005 11 25.32634 04 30 10.72 +11 49 08.2 18.5 V 703 – Catalina Sky Survey MPS 151976
2005 11 25.33663 04 30 10.15 +11 49 08.4 18.2 V 703 – Catalina Sky Survey MPS 151976
2005 11 25.34686 04 30 09.46 +11 49 09.7 18.5 V 703 – Catalina Sky Survey MPS 151976
2005 11 25.35706 04 30 08.85 +11 49 09.9 18.1 V 703 – Catalina Sky Survey MPS 151976
2005 11 28.31134 04 27 15.02 +11 51 06.4 18.5 R 699 – Lowell Observatory-LONEOS MPS 151976
2005 11 28.32964 04 27 13.92 +11 51 07.8   699 – Lowell Observatory-LONEOS MPS 151976
2005 11 28.34793 04 27 12.89 +11 51 12.0   699 – Lowell Observatory-LONEOS MPS 151976
2005 11 28.36622 04 27 11.53 +11 51 11.9   699 – Lowell Observatory-LONEOS MPS 151976
2005 11 30.32163 04 25 16.18 +11 52 57.3 18.7 R 644 – Palomar Mountain/NEAT MPS 153597
2005 11 30.34609 04 25 14.69 +11 52 59.0 18.9 R 644 – Palomar Mountain/NEAT MPS 153597
2005 11 30.37932 04 25 12.64 +11 53 00.9 18.7 R 644 – Palomar Mountain/NEAT MPS 153597
2005 12 04.24134 04 21 26.50 +11 57 49.1   683 – Goodricke-Pigott Observatory, Tucson MPS 153597
2005 12 04.26866 04 21 24.91 +11 57 52.9 19.2 R 683 – Goodricke-Pigott Observatory, Tucson MPS 153597
2005 12 08.22780 04 17 39.97 +12 04 29.5 18.5 R 683 – Goodricke-Pigott Observatory, Tucson MPS 155248
2005 12 08.25512 04 17 38.08 +12 04 34.0 18.4 R 683 – Goodricke-Pigott Observatory, Tucson MPS 155248
2005 12 08.26129 04 17 37.92 +12 04 32.4 19.1   704 – Lincoln Laboratory ETS, New Mexico MPS 153597
2005 12 08.27446 04 17 37.06 +12 04 35.0 19.3   704 – Lincoln Laboratory ETS, New Mexico MPS 153597
2005 12 08.28727 04 17 36.39 +12 04 36.3 19.2   704 – Lincoln Laboratory ETS, New Mexico MPS 153597
2005 12 08.31328 04 17 34.89 +12 04 39.4 19.0   704 – Lincoln Laboratory ETS, New Mexico MPS 153597
2005 12 27.20940 04 03 35.12 +13 00 12.8 19.4   704 – Lincoln Laboratory ETS, New Mexico MPS 156500
2005 12 27.22224 04 03 34.78 +13 00 16.3 19.4   704 – Lincoln Laboratory ETS, New Mexico MPS 156500
2005 12 27.23501 04 03 34.38 +13 00 18.7 19.4   704 – Lincoln Laboratory ETS, New Mexico MPS 156500
2006 01 31.11566 04 04 21.64 +16 01 34.1 19.8 V G96 – Mt. Lemmon Survey MPS 161699
2006 01 31.12360 04 04 21.90 +16 01 36.7 20.0 V G96 – Mt. Lemmon Survey MPS 161699
2006 01 31.13154 04 04 22.15 +16 01 39.5 19.7 V G96 – Mt. Lemmon Survey MPS 161699
2006 01 31.13947 04 04 22.36 +16 01 42.6 20.0 V G96 – Mt. Lemmon Survey MPS 161699
2007 03 18.06687 11 55 04.96 +12 08 23.3 20.3 V 941 – Observatorio Pla D'Arguines MPS 204515
2007 03 18.06801 11 55 04.91 +12 08 23.6 20.3 V 941 – Observatorio Pla D'Arguines MPS 204515
2007 03 18.07027 11 55 04.77 +12 08 24.3 20.3 V 941 – Observatorio Pla D'Arguines MPS 204515
2007 03 18.07367 11 55 04.59 +12 08 25.6 20.2 V 941 – Observatorio Pla D'Arguines MPS 204515
2007 03 23.81238 11 50 19.50 +12 42 07.9 19.9 R 152 – Moletai Astronomical Observatory MPS 386240
